User: anonymous
Location: Writing-on-Stone Provincial Park
(49.0825°N, 111.6163°W)
Time: 22:01:36
(UTC-06:00)
Language:

BREEZE-M DEB (TANK) - Orbit

View from above orbital plane
View from above orbital plane
View from above satellite
View from above satellite

Ground track
Ground track

The orbit data is extracted from the following two-line orbital elements,

1 29649U 06056B   14272.44809942  .00005565  00000-0  73006-3 0   297
2 29649 049.4768 235.5469 5424407 265.2488 313.3934 04.94850731138408
Epoch (UTC): 29 September 2014 10:45:15
Eccentricity: 0.5424407
inclination: 49.4768°
perigee height: 277 km
apogee height: 16058 km
right ascension of ascending node: 235.5469°
argument of perigee: 265.2488°
revolutions per day: 4.94850731
mean anomaly at epoch: 313.3934°
orbit number at epoch: 13840

The dashed part of the orbit path shows where the satellite is in the earth's shadow,  

DLR